{"data":{"norad_id":68955,"epoch":"2026-05-25T04:00:03.998880Z","epoch_age_seconds":57692,"freshness":"FRESH","line1":"1 68955U 26099E   26145.16671295 -.01897246  00000+0 -21143-1 0  9994","line2":"2 68955  53.1590 270.1252 0000937  76.0371 191.3379 15.65301180  5019","mean_motion":15.6530118,"eccentricity":9.37e-5,"inclination_deg":53.159,"raan_deg":270.1252,"arg_perigee_deg":76.0371,"mean_anomaly_deg":191.3379,"bstar":-0.021143,"rev_number":501,"period_min":91.995075350291,"perigee_km":371.74018627411,"apogee_km":373.00523179358,"semimajor_km":6750.5097090338,"source":"CELESTRAK","updated_at":"2026-05-25T13:38:22.072569Z"}}